Year,Month,Day,Hour,Minute,Value (Times are PST for insolation in W/m^2)
2009,05,18,00,00,0.00
2009,05,18,00,01,0.00
2009,05,18,00,02,0.00
2009,05,18,00,03,0.00
2009,05,18,00,04,0.00
2009,05,18,00,05,0.00
2009,05,18,00,06,0.00
2009,05,18,00,07,0.00
2009,05,18,00,08,0.00
2009,05,18,00,09,0.00
2009,05,18,00,10,0.00
2009,05,18,00,11,0.00
2009,05,18,00,12,0.00
2009,05,18,00,13,0.00
2009,05,18,00,14,0.00
2009,05,18,00,15,0.00
2009,05,18,00,16,0.00
2009,05,18,00,17,0.00
2009,05,18,00,18,0.00
2009,05,18,00,19,0.00
2009,05,18,00,20,0.00
2009,05,18,00,21,0.00
2009,05,18,00,22,0.00
2009,05,18,00,23,0.00
2009,05,18,00,24,0.00
2009,05,18,00,25,0.00
2009,05,18,00,26,0.00
2009,05,18,00,27,0.00
2009,05,18,00,28,0.00
2009,05,18,00,29,0.00
2009,05,18,00,30,0.00
2009,05,18,00,31,0.00
2009,05,18,00,32,0.00
2009,05,18,00,33,0.00
2009,05,18,00,34,0.00
2009,05,18,00,35,0.00
2009,05,18,00,36,0.00
2009,05,18,00,37,0.00
2009,05,18,00,38,0.00
2009,05,18,00,39,0.00
2009,05,18,00,40,0.00
2009,05,18,00,41,0.00
2009,05,18,00,42,0.00
2009,05,18,00,43,0.00
2009,05,18,00,44,0.00
2009,05,18,00,45,0.00
2009,05,18,00,46,0.00
2009,05,18,00,47,0.00
2009,05,18,00,48,0.00
2009,05,18,00,49,0.00
2009,05,18,00,50,0.00
2009,05,18,00,51,0.00
2009,05,18,00,52,0.00
2009,05,18,00,53,0.00
2009,05,18,00,54,0.00
2009,05,18,00,55,0.00
2009,05,18,00,56,0.00
2009,05,18,00,57,0.00
2009,05,18,00,58,0.00
2009,05,18,00,59,0.00
2009,05,18,01,00,0.00
2009,05,18,01,01,0.00
2009,05,18,01,02,0.00
2009,05,18,01,03,0.00
2009,05,18,01,04,0.00
2009,05,18,01,05,0.00
2009,05,18,01,06,0.00
2009,05,18,01,07,0.00
2009,05,18,01,08,0.00
2009,05,18,01,09,0.00
2009,05,18,01,10,0.00
2009,05,18,01,11,0.00
2009,05,18,01,12,0.00
2009,05,18,01,13,0.00
2009,05,18,01,14,0.00
2009,05,18,01,15,0.00
2009,05,18,01,16,0.00
2009,05,18,01,17,0.00
2009,05,18,01,18,0.00
2009,05,18,01,19,0.00
2009,05,18,01,20,0.00
2009,05,18,01,21,0.00
2009,05,18,01,22,0.00
2009,05,18,01,23,0.00
2009,05,18,01,24,0.00
2009,05,18,01,25,0.00
2009,05,18,01,26,0.00
2009,05,18,01,27,0.00
2009,05,18,01,28,0.00
2009,05,18,01,29,0.00
2009,05,18,01,30,0.00
2009,05,18,01,31,0.00
2009,05,18,01,32,0.00
2009,05,18,01,33,0.00
2009,05,18,01,34,0.00
2009,05,18,01,35,0.00
2009,05,18,01,36,0.00
2009,05,18,01,37,0.00
2009,05,18,01,38,0.00
2009,05,18,01,39,0.00
2009,05,18,01,40,0.00
2009,05,18,01,41,0.00
2009,05,18,01,42,0.00
2009,05,18,01,43,0.00
2009,05,18,01,44,0.00
2009,05,18,01,45,0.00
2009,05,18,01,46,0.00
2009,05,18,01,47,0.00
2009,05,18,01,48,0.00
2009,05,18,01,49,0.00
2009,05,18,01,50,0.00
2009,05,18,01,51,0.00
2009,05,18,01,52,0.00
2009,05,18,01,53,0.00
2009,05,18,01,54,0.00
2009,05,18,01,55,0.00
2009,05,18,01,56,0.00
2009,05,18,01,57,0.00
2009,05,18,01,58,0.00
2009,05,18,01,59,0.00
2009,05,18,02,00,0.00
2009,05,18,02,01,0.00
2009,05,18,02,02,0.00
2009,05,18,02,03,0.00
2009,05,18,02,04,0.00
2009,05,18,02,05,0.00
2009,05,18,02,06,0.00
2009,05,18,02,07,0.00
2009,05,18,02,08,0.00
2009,05,18,02,09,0.00
2009,05,18,02,10,0.00
2009,05,18,02,11,0.00
2009,05,18,02,12,0.00
2009,05,18,02,13,0.00
2009,05,18,02,14,0.00
2009,05,18,02,15,0.00
2009,05,18,02,16,0.00
2009,05,18,02,17,0.00
2009,05,18,02,18,0.00
2009,05,18,02,19,0.00
2009,05,18,02,20,0.00
2009,05,18,02,21,0.00
2009,05,18,02,22,0.00
2009,05,18,02,23,0.00
2009,05,18,02,24,0.00
2009,05,18,02,25,0.00
2009,05,18,02,26,0.00
2009,05,18,02,27,0.00
2009,05,18,02,28,0.00
2009,05,18,02,29,0.00
2009,05,18,02,30,0.00
2009,05,18,02,31,0.00
2009,05,18,02,32,0.00
2009,05,18,02,33,0.00
2009,05,18,02,34,0.00
2009,05,18,02,35,0.00
2009,05,18,02,36,0.00
2009,05,18,02,37,0.00
2009,05,18,02,38,0.00
2009,05,18,02,39,0.00
2009,05,18,02,40,0.00
2009,05,18,02,41,0.00
2009,05,18,02,42,0.00
2009,05,18,02,43,0.00
2009,05,18,02,44,0.00
2009,05,18,02,45,0.00
2009,05,18,02,46,0.00
2009,05,18,02,47,0.00
2009,05,18,02,48,0.00
2009,05,18,02,49,0.00
2009,05,18,02,50,0.00
2009,05,18,02,51,0.00
2009,05,18,02,52,0.00
2009,05,18,02,53,0.00
2009,05,18,02,54,0.00
2009,05,18,02,55,0.00
2009,05,18,02,56,0.00
2009,05,18,02,57,0.00
2009,05,18,02,58,0.00
2009,05,18,02,59,0.00
2009,05,18,03,00,0.00
2009,05,18,03,01,0.00
2009,05,18,03,02,0.00
2009,05,18,03,03,0.00
2009,05,18,03,04,0.00
2009,05,18,03,05,0.00
2009,05,18,03,06,0.00
2009,05,18,03,07,0.00
2009,05,18,03,08,0.00
2009,05,18,03,09,0.00
2009,05,18,03,10,0.00
2009,05,18,03,11,0.00
2009,05,18,03,12,0.00
2009,05,18,03,13,0.00
2009,05,18,03,14,0.00
2009,05,18,03,15,0.00
2009,05,18,03,16,0.00
2009,05,18,03,17,0.00
2009,05,18,03,18,0.00
2009,05,18,03,19,0.00
2009,05,18,03,20,0.00
2009,05,18,03,21,0.00
2009,05,18,03,22,0.00
2009,05,18,03,23,0.00
2009,05,18,03,24,0.00
2009,05,18,03,25,0.00
2009,05,18,03,26,0.00
2009,05,18,03,27,0.00
2009,05,18,03,28,0.00
2009,05,18,03,29,0.00
2009,05,18,03,30,0.00
2009,05,18,03,31,0.00
2009,05,18,03,32,0.00
2009,05,18,03,33,0.00
2009,05,18,03,34,0.00
2009,05,18,03,35,0.00
2009,05,18,03,36,0.00
2009,05,18,03,37,0.00
2009,05,18,03,38,0.00
2009,05,18,03,39,0.00
2009,05,18,03,40,0.00
2009,05,18,03,41,0.00
2009,05,18,03,42,0.00
2009,05,18,03,43,0.00
2009,05,18,03,44,0.00
2009,05,18,03,45,0.00
2009,05,18,03,46,0.00
2009,05,18,03,47,0.00
2009,05,18,03,48,0.00
2009,05,18,03,49,0.00
2009,05,18,03,50,0.00
2009,05,18,03,51,0.00
2009,05,18,03,52,0.00
2009,05,18,03,53,0.00
2009,05,18,03,54,0.00
2009,05,18,03,55,0.00
2009,05,18,03,56,0.00
2009,05,18,03,57,0.00
2009,05,18,03,58,0.00
2009,05,18,03,59,0.00
2009,05,18,04,00,0.00
2009,05,18,04,01,0.00
2009,05,18,04,02,0.00
2009,05,18,04,03,0.00
2009,05,18,04,04,0.00
2009,05,18,04,05,0.00
2009,05,18,04,06,0.00
2009,05,18,04,07,0.00
2009,05,18,04,08,0.00
2009,05,18,04,09,0.00
2009,05,18,04,10,0.00
2009,05,18,04,11,0.00
2009,05,18,04,12,0.00
2009,05,18,04,13,0.00
2009,05,18,04,14,0.00
2009,05,18,04,15,0.00
2009,05,18,04,16,0.00
2009,05,18,04,17,0.00
2009,05,18,04,18,0.00
2009,05,18,04,19,0.00
2009,05,18,04,20,0.00
2009,05,18,04,21,0.00
2009,05,18,04,22,0.00
2009,05,18,04,23,0.00
2009,05,18,04,24,0.00
2009,05,18,04,25,0.00
2009,05,18,04,26,0.00
2009,05,18,04,27,0.00
2009,05,18,04,28,0.00
2009,05,18,04,29,0.00
2009,05,18,04,30,0.00
2009,05,18,04,31,0.00
2009,05,18,04,32,0.00
2009,05,18,04,33,0.00
2009,05,18,04,34,0.00
2009,05,18,04,35,0.00
2009,05,18,04,36,0.00
2009,05,18,04,37,0.00
2009,05,18,04,38,0.00
2009,05,18,04,39,0.00
2009,05,18,04,40,0.00
2009,05,18,04,41,0.00
2009,05,18,04,42,0.00
2009,05,18,04,43,0.00
2009,05,18,04,44,0.00
2009,05,18,04,45,0.00
2009,05,18,04,46,0.00
2009,05,18,04,47,0.00
2009,05,18,04,48,0.00
2009,05,18,04,49,0.00
2009,05,18,04,50,0.00
2009,05,18,04,51,0.00
2009,05,18,04,52,0.00
2009,05,18,04,53,0.00
2009,05,18,04,54,0.00
2009,05,18,04,55,0.00
2009,05,18,04,56,0.00
2009,05,18,04,57,0.00
2009,05,18,04,58,0.00
2009,05,18,04,59,0.00
2009,05,18,05,00,0.00
2009,05,18,05,01,0.00
2009,05,18,05,02,0.00
2009,05,18,05,03,0.00
2009,05,18,05,04,0.00
2009,05,18,05,05,0.00
2009,05,18,05,06,0.00
2009,05,18,05,07,0.00
2009,05,18,05,08,0.00
2009,05,18,05,09,0.00
2009,05,18,05,10,0.00
2009,05,18,05,11,0.00
2009,05,18,05,12,0.00
2009,05,18,05,13,0.00
2009,05,18,05,14,0.00
2009,05,18,05,15,0.00
2009,05,18,05,16,0.00
2009,05,18,05,17,0.00
2009,05,18,05,18,0.00
2009,05,18,05,19,0.00
2009,05,18,05,20,0.00
2009,05,18,05,21,0.00
2009,05,18,05,22,0.00
2009,05,18,05,23,0.00
2009,05,18,05,24,0.00
2009,05,18,05,25,0.00
2009,05,18,05,26,0.00
2009,05,18,05,27,0.00
2009,05,18,05,28,0.00
2009,05,18,05,29,0.00
2009,05,18,05,30,0.00
2009,05,18,05,31,0.00
2009,05,18,05,32,0.00
2009,05,18,05,33,0.00
2009,05,18,05,34,0.00
2009,05,18,05,35,0.00
2009,05,18,05,36,0.00
2009,05,18,05,37,0.00
2009,05,18,05,38,0.00
2009,05,18,05,39,0.00
2009,05,18,05,40,0.00
2009,05,18,05,41,0.00
2009,05,18,05,42,0.00
2009,05,18,05,43,0.00
2009,05,18,05,44,0.00
2009,05,18,05,45,0.00
2009,05,18,05,46,2.40
2009,05,18,05,47,5.00
2009,05,18,05,48,5.00
2009,05,18,05,49,5.00
2009,05,18,05,50,5.00
2009,05,18,05,51,5.00
2009,05,18,05,52,5.00
2009,05,18,05,53,5.00
2009,05,18,05,54,6.90
2009,05,18,05,55,7.00
2009,05,18,05,56,7.00
2009,05,18,05,57,7.00
2009,05,18,05,58,7.60
2009,05,18,05,59,9.00
2009,05,18,06,00,9.80
2009,05,18,06,01,11.40
2009,05,18,06,02,12.00
2009,05,18,06,03,13.20
2009,05,18,06,04,15.30
2009,05,18,06,05,17.40
2009,05,18,06,06,18.80
2009,05,18,06,07,19.00
2009,05,18,06,08,20.80
2009,05,18,06,09,21.00
2009,05,18,06,10,23.00
2009,05,18,06,11,23.30
2009,05,18,06,12,24.60
2009,05,18,06,13,23.00
2009,05,18,06,14,23.00
2009,05,18,06,15,23.00
2009,05,18,06,16,23.90
2009,05,18,06,17,25.50
2009,05,18,06,18,27.20
2009,05,18,06,19,29.30
2009,05,18,06,20,31.40
2009,05,18,06,21,30.50
2009,05,18,06,22,28.30
2009,05,18,06,23,26.20
2009,05,18,06,24,25.10
2009,05,18,06,25,25.00
2009,05,18,06,26,26.60
2009,05,18,06,27,30.50
2009,05,18,06,28,32.30
2009,05,18,06,29,33.00
2009,05,18,06,30,33.00
2009,05,18,06,31,33.00
2009,05,18,06,32,33.00
2009,05,18,06,33,35.30
2009,05,18,06,34,38.20
2009,05,18,06,35,41.10
2009,05,18,06,36,42.00
2009,05,18,06,37,42.00
2009,05,18,06,38,42.00
2009,05,18,06,39,43.90
2009,05,18,06,40,46.30
2009,05,18,06,41,49.00
2009,05,18,06,42,49.80
2009,05,18,06,43,53.00
2009,05,18,06,44,53.00
2009,05,18,06,45,52.20
2009,05,18,06,46,51.00
2009,05,18,06,47,51.00
2009,05,18,06,48,52.10
2009,05,18,06,49,53.70
2009,05,18,06,50,57.00
2009,05,18,06,51,59.50
2009,05,18,06,52,61.60
2009,05,18,06,53,62.90
2009,05,18,06,54,65.00
2009,05,18,06,55,65.00
2009,05,18,06,56,65.00
2009,05,18,06,57,64.60
2009,05,18,06,58,62.70
2009,05,18,06,59,62.00
2009,05,18,07,00,61.10
2009,05,18,07,01,60.00
2009,05,18,07,02,59.00
2009,05,18,07,03,56.80
2009,05,18,07,04,54.70
2009,05,18,07,05,54.00
2009,05,18,07,06,57.00
2009,05,18,07,07,62.20
2009,05,18,07,08,68.40
2009,05,18,07,09,71.80
2009,05,18,07,10,76.00
2009,05,18,07,11,76.00
2009,05,18,07,12,76.00
2009,05,18,07,13,76.80
2009,05,18,07,14,79.00
2009,05,18,07,15,83.40
2009,05,18,07,16,91.50
2009,05,18,07,17,94.10
2009,05,18,07,18,96.80
2009,05,18,07,19,99.30
2009,05,18,07,20,101.50
2009,05,18,07,21,100.50
2009,05,18,07,22,97.40
2009,05,18,07,23,93.40
2009,05,18,07,24,90.90
2009,05,18,07,25,87.80
2009,05,18,07,26,83.60
2009,05,18,07,27,80.50
2009,05,18,07,28,78.40
2009,05,18,07,29,77.00
2009,05,18,07,30,77.00
2009,05,18,07,31,76.60
2009,05,18,07,32,74.90
2009,05,18,07,33,72.80
2009,05,18,07,34,73.30
2009,05,18,07,35,75.50
2009,05,18,07,36,76.80
2009,05,18,07,37,78.60
2009,05,18,07,38,80.80
2009,05,18,07,39,82.90
2009,05,18,07,40,83.10
2009,05,18,07,41,83.80
2009,05,18,07,42,83.00
2009,05,18,07,43,82.40
2009,05,18,07,44,80.40
2009,05,18,07,45,79.00
2009,05,18,07,46,79.90
2009,05,18,07,47,81.00
2009,05,18,07,48,81.00
2009,05,18,07,49,81.00
2009,05,18,07,50,82.40
2009,05,18,07,51,83.00
2009,05,18,07,52,83.00
2009,05,18,07,53,83.90
2009,05,18,07,54,84.00
2009,05,18,07,55,86.40
2009,05,18,07,56,90.80
2009,05,18,07,57,95.80
2009,05,18,07,58,98.50
2009,05,18,07,59,101.40
2009,05,18,08,00,105.10
2009,05,18,08,01,107.90
2009,05,18,08,02,109.00
2009,05,18,08,03,109.00
2009,05,18,08,04,106.50
2009,05,18,08,05,105.00
2009,05,18,08,06,105.00
2009,05,18,08,07,109.80
2009,05,18,08,08,117.30
2009,05,18,08,09,123.00
2009,05,18,08,10,130.50
2009,05,18,08,11,135.90
2009,05,18,08,12,141.60
2009,05,18,08,13,144.00
2009,05,18,08,14,143.30
2009,05,18,08,15,140.70
2009,05,18,08,16,138.00
2009,05,18,08,17,138.10
2009,05,18,08,18,140.80
2009,05,18,08,19,146.10
2009,05,18,08,20,152.90
2009,05,18,08,21,160.20
2009,05,18,08,22,162.80
2009,05,18,08,23,160.30
2009,05,18,08,24,156.20
2009,05,18,08,25,155.10
2009,05,18,08,26,156.60
2009,05,18,08,27,161.40
2009,05,18,08,28,168.50
2009,05,18,08,29,173.90
2009,05,18,08,30,178.00
2009,05,18,08,31,178.00
2009,05,18,08,32,177.00
2009,05,18,08,33,177.20
2009,05,18,08,34,180.10
2009,05,18,08,35,183.80
2009,05,18,08,36,188.80
2009,05,18,08,37,194.20
2009,05,18,08,38,203.10
2009,05,18,08,39,212.80
2009,05,18,08,40,218.30
2009,05,18,08,41,224.30
2009,05,18,08,42,233.40
2009,05,18,08,43,240.00
2009,05,18,08,44,244.10
2009,05,18,08,45,248.00
2009,05,18,08,46,247.70
2009,05,18,08,47,237.40
2009,05,18,08,48,230.10
2009,05,18,08,49,227.70
2009,05,18,08,50,227.00
2009,05,18,08,51,228.60
2009,05,18,08,52,229.80
2009,05,18,08,53,233.60
2009,05,18,08,54,234.00
2009,05,18,08,55,244.70
2009,05,18,08,56,251.00
2009,05,18,08,57,252.50
2009,05,18,08,58,255.80
2009,05,18,08,59,251.90
2009,05,18,09,00,250.00
2009,05,18,09,01,250.50
2009,05,18,09,02,254.30
2009,05,18,09,03,257.60
2009,05,18,09,04,259.30
2009,05,18,09,05,260.00
2009,05,18,09,06,260.00
2009,05,18,09,07,261.70
2009,05,18,09,08,266.50
2009,05,18,09,09,272.10
2009,05,18,09,10,278.90
2009,05,18,09,11,277.10
2009,05,18,09,12,270.30
2009,05,18,09,13,263.20
2009,05,18,09,14,255.60
2009,05,18,09,15,247.00
2009,05,18,09,16,236.50
2009,05,18,09,17,229.20
2009,05,18,09,18,224.70
2009,05,18,09,19,221.70
2009,05,18,09,20,221.00
2009,05,18,09,21,218.80
2009,05,18,09,22,213.80
2009,05,18,09,23,207.60
2009,05,18,09,24,200.40
2009,05,18,09,25,194.50
2009,05,18,09,26,189.40
2009,05,18,09,27,185.80
2009,05,18,09,28,185.00
2009,05,18,09,29,184.30
2009,05,18,09,30,182.20
2009,05,18,09,31,180.10
2009,05,18,09,32,179.00
2009,05,18,09,33,178.40
2009,05,18,09,34,178.00
2009,05,18,09,35,178.70
2009,05,18,09,36,180.50
2009,05,18,09,37,185.20
2009,05,18,09,38,194.10
2009,05,18,09,39,205.40
2009,05,18,09,40,218.40
2009,05,18,09,41,228.10
2009,05,18,09,42,236.50
2009,05,18,09,43,244.50
2009,05,18,09,44,242.50
2009,05,18,09,45,229.60
2009,05,18,09,46,215.10
2009,05,18,09,47,207.40
2009,05,18,09,48,204.80
2009,05,18,09,49,204.00
2009,05,18,09,50,205.40
2009,05,18,09,51,209.80
2009,05,18,09,52,216.90
2009,05,18,09,53,216.20
2009,05,18,09,54,209.40
2009,05,18,09,55,198.10
2009,05,18,09,56,189.40
2009,05,18,09,57,186.40
2009,05,18,09,58,190.60
2009,05,18,09,59,200.30
2009,05,18,10,00,209.20
2009,05,18,10,01,219.90
2009,05,18,10,02,231.90
2009,05,18,10,03,237.90
2009,05,18,10,04,236.90
2009,05,18,10,05,231.80
2009,05,18,10,06,230.00
2009,05,18,10,07,233.40
2009,05,18,10,08,232.20
2009,05,18,10,09,227.10
2009,05,18,10,10,223.00
2009,05,18,10,11,224.10
2009,05,18,10,12,231.40
2009,05,18,10,13,238.50
2009,05,18,10,14,243.00
2009,05,18,10,15,241.40
2009,05,18,10,16,235.70
2009,05,18,10,17,228.50
2009,05,18,10,18,221.90
2009,05,18,10,19,218.60
2009,05,18,10,20,216.60
2009,05,18,10,21,216.00
2009,05,18,10,22,217.70
2009,05,18,10,23,218.00
2009,05,18,10,24,216.00
2009,05,18,10,25,214.00
2009,05,18,10,26,215.10
2009,05,18,10,27,222.00
2009,05,18,10,28,225.00
2009,05,18,10,29,223.20
2009,05,18,10,30,218.40
2009,05,18,10,31,216.90
2009,05,18,10,32,220.60
2009,05,18,10,33,224.20
2009,05,18,10,34,226.30
2009,05,18,10,35,229.10
2009,05,18,10,36,234.80
2009,05,18,10,37,244.50
2009,05,18,10,38,257.40
2009,05,18,10,39,268.80
2009,05,18,10,40,276.50
2009,05,18,10,41,282.40
2009,05,18,10,42,292.40
2009,05,18,10,43,305.10
2009,05,18,10,44,317.20
2009,05,18,10,45,324.20
2009,05,18,10,46,321.60
2009,05,18,10,47,321.50
2009,05,18,10,48,325.40
2009,05,18,10,49,327.00
2009,05,18,10,50,327.00
2009,05,18,10,51,325.50
2009,05,18,10,52,328.50
2009,05,18,10,53,329.00
2009,05,18,10,54,329.00
2009,05,18,10,55,329.00
2009,05,18,10,56,334.90
2009,05,18,10,57,381.20
2009,05,18,10,58,401.20
2009,05,18,10,59,415.20
2009,05,18,11,00,408.30
2009,05,18,11,01,404.60
2009,05,18,11,02,389.20
2009,05,18,11,03,362.20
2009,05,18,11,04,337.40
2009,05,18,11,05,317.80
2009,05,18,11,06,304.20
2009,05,18,11,07,297.80
2009,05,18,11,08,295.20
2009,05,18,11,09,293.90
2009,05,18,11,10,291.10
2009,05,18,11,11,280.60
2009,05,18,11,12,263.20
2009,05,18,11,13,244.50
2009,05,18,11,14,229.40
2009,05,18,11,15,216.20
2009,05,18,11,16,204.70
2009,05,18,11,17,199.50
2009,05,18,11,18,202.90
2009,05,18,11,19,211.20
2009,05,18,11,20,220.60
2009,05,18,11,21,229.80
2009,05,18,11,22,233.60
2009,05,18,11,23,224.10
2009,05,18,11,24,211.60
2009,05,18,11,25,201.50
2009,05,18,11,26,196.40
2009,05,18,11,27,192.40
2009,05,18,11,28,190.00
2009,05,18,11,29,191.10
2009,05,18,11,30,195.80
2009,05,18,11,31,204.50
2009,05,18,11,32,215.30
2009,05,18,11,33,233.00
2009,05,18,11,34,256.60
2009,05,18,11,35,285.20
2009,05,18,11,36,310.20
2009,05,18,11,37,331.80
2009,05,18,11,38,353.10
2009,05,18,11,39,359.80
2009,05,18,11,40,353.80
2009,05,18,11,41,341.60
2009,05,18,11,42,331.80
2009,05,18,11,43,319.60
2009,05,18,11,44,309.90
2009,05,18,11,45,309.20
2009,05,18,11,46,313.20
2009,05,18,11,47,324.00
2009,05,18,11,48,350.30
2009,05,18,11,49,400.90
2009,05,18,11,50,429.20
2009,05,18,11,51,428.80
2009,05,18,11,52,397.40
2009,05,18,11,53,345.90
2009,05,18,11,54,302.90
2009,05,18,11,55,280.10
2009,05,18,11,56,270.80
2009,05,18,11,57,261.40
2009,05,18,11,58,248.60
2009,05,18,11,59,240.80
2009,05,18,12,00,235.00
2009,05,18,12,01,232.00
2009,05,18,12,02,234.10
2009,05,18,12,03,239.90
2009,05,18,12,04,248.20
2009,05,18,12,05,256.20
2009,05,18,12,06,261.00
2009,05,18,12,07,257.80
2009,05,18,12,08,250.70
2009,05,18,12,09,246.20
2009,05,18,12,10,246.70
2009,05,18,12,11,253.80
2009,05,18,12,12,259.40
2009,05,18,12,13,266.80
2009,05,18,12,14,271.30
2009,05,18,12,15,273.60
2009,05,18,12,16,277.40
2009,05,18,12,17,280.00
2009,05,18,12,18,279.20
2009,05,18,12,19,273.90
2009,05,18,12,20,267.10
2009,05,18,12,21,265.00
2009,05,18,12,22,268.40
2009,05,18,12,23,277.10
2009,05,18,12,24,288.30
2009,05,18,12,25,306.10
2009,05,18,12,26,328.00
2009,05,18,12,27,347.80
2009,05,18,12,28,359.00
2009,05,18,12,29,356.50
2009,05,18,12,30,346.40
2009,05,18,12,31,331.20
2009,05,18,12,32,315.70
2009,05,18,12,33,300.90
2009,05,18,12,34,290.70
2009,05,18,12,35,288.00
2009,05,18,12,36,292.70
2009,05,18,12,37,294.00
2009,05,18,12,38,292.20
2009,05,18,12,39,287.00
2009,05,18,12,40,280.70
2009,05,18,12,41,277.10
2009,05,18,12,42,270.20
2009,05,18,12,43,263.50
2009,05,18,12,44,257.70
2009,05,18,12,45,252.20
2009,05,18,12,46,250.60
2009,05,18,12,47,250.60
2009,05,18,12,48,252.20
2009,05,18,12,49,256.20
2009,05,18,12,50,265.70
2009,05,18,12,51,281.20
2009,05,18,12,52,299.50
2009,05,18,12,53,318.20
2009,05,18,12,54,322.90
2009,05,18,12,55,323.00
2009,05,18,12,56,321.70
2009,05,18,12,57,311.00
2009,05,18,12,58,289.00
2009,05,18,12,59,265.20
2009,05,18,13,00,240.80
2009,05,18,13,01,219.40
2009,05,18,13,02,208.80
2009,05,18,13,03,208.20
2009,05,18,13,04,213.60
2009,05,18,13,05,222.30
2009,05,18,13,06,228.80
2009,05,18,13,07,233.40
2009,05,18,13,08,243.00
2009,05,18,13,09,265.20
2009,05,18,13,10,292.30
2009,05,18,13,11,314.80
2009,05,18,13,12,328.10
2009,05,18,13,13,339.50
2009,05,18,13,14,344.80
2009,05,18,13,15,351.80
2009,05,18,13,16,358.00
2009,05,18,13,17,352.20
2009,05,18,13,18,338.00
2009,05,18,13,19,325.50
2009,05,18,13,20,319.20
2009,05,18,13,21,323.30
2009,05,18,13,22,336.90
2009,05,18,13,23,357.00
2009,05,18,13,24,377.50
2009,05,18,13,25,388.40
2009,05,18,13,26,404.50
2009,05,18,13,27,428.20
2009,05,18,13,28,451.80
2009,05,18,13,29,466.50
2009,05,18,13,30,456.90
2009,05,18,13,31,452.50
2009,05,18,13,32,470.80
2009,05,18,13,33,472.40
2009,05,18,13,34,484.20
2009,05,18,13,35,475.00
2009,05,18,13,36,447.20
2009,05,18,13,37,424.00
2009,05,18,13,38,386.80
2009,05,18,13,39,355.90
2009,05,18,13,40,332.30
2009,05,18,13,41,317.20
2009,05,18,13,42,311.80
2009,05,18,13,43,309.30
2009,05,18,13,44,317.20
2009,05,18,13,45,324.30
2009,05,18,13,46,314.30
2009,05,18,13,47,302.00
2009,05,18,13,48,287.40
2009,05,18,13,49,262.80
2009,05,18,13,50,232.60
2009,05,18,13,51,209.60
2009,05,18,13,52,204.40
2009,05,18,13,53,208.50
2009,05,18,13,54,212.80
2009,05,18,13,55,213.50
2009,05,18,13,56,219.40
2009,05,18,13,57,226.00
2009,05,18,13,58,225.50
2009,05,18,13,59,214.10
2009,05,18,14,00,201.90
2009,05,18,14,01,195.00
2009,05,18,14,02,201.10
2009,05,18,14,03,210.60
2009,05,18,14,04,216.60
2009,05,18,14,05,219.40
2009,05,18,14,06,223.80
2009,05,18,14,07,234.40
2009,05,18,14,08,248.60
2009,05,18,14,09,269.30
2009,05,18,14,10,294.50
2009,05,18,14,11,297.40
2009,05,18,14,12,287.00
2009,05,18,14,13,283.00
2009,05,18,14,14,284.80
2009,05,18,14,15,290.70
2009,05,18,14,16,291.20
2009,05,18,14,17,279.10
2009,05,18,14,18,257.20
2009,05,18,14,19,240.30
2009,05,18,14,20,240.00
2009,05,18,14,21,250.50
2009,05,18,14,22,268.30
2009,05,18,14,23,283.60
2009,05,18,14,24,283.10
2009,05,18,14,25,280.50
2009,05,18,14,26,255.10
2009,05,18,14,27,233.50
2009,05,18,14,28,211.80
2009,05,18,14,29,200.00
2009,05,18,14,30,194.00
2009,05,18,14,31,185.50
2009,05,18,14,32,186.60
2009,05,18,14,33,189.20
2009,05,18,14,34,188.70
2009,05,18,14,35,185.80
2009,05,18,14,36,183.40
2009,05,18,14,37,184.70
2009,05,18,14,38,191.30
2009,05,18,14,39,204.20
2009,05,18,14,40,221.00
2009,05,18,14,41,231.40
2009,05,18,14,42,238.00
2009,05,18,14,43,238.90
2009,05,18,14,44,234.00
2009,05,18,14,45,227.60
2009,05,18,14,46,215.60
2009,05,18,14,47,214.60
2009,05,18,14,48,223.50
2009,05,18,14,49,233.70
2009,05,18,14,50,229.20
2009,05,18,14,51,225.40
2009,05,18,14,52,232.60
2009,05,18,14,53,243.00
2009,05,18,14,54,252.60
2009,05,18,14,55,254.60
2009,05,18,14,56,250.20
2009,05,18,14,57,245.60
2009,05,18,14,58,243.70
2009,05,18,14,59,241.50
2009,05,18,15,00,237.80
2009,05,18,15,01,233.30
2009,05,18,15,02,226.30
2009,05,18,15,03,217.30
2009,05,18,15,04,207.30
2009,05,18,15,05,198.80
2009,05,18,15,06,193.10
2009,05,18,15,07,188.60
2009,05,18,15,08,181.40
2009,05,18,15,09,176.00
2009,05,18,15,10,172.20
2009,05,18,15,11,174.60
2009,05,18,15,12,178.00
2009,05,18,15,13,178.30
2009,05,18,15,14,179.00
2009,05,18,15,15,180.80
2009,05,18,15,16,184.40
2009,05,18,15,17,187.00
2009,05,18,15,18,190.40
2009,05,18,15,19,192.60
2009,05,18,15,20,193.00
2009,05,18,15,21,193.00
2009,05,18,15,22,192.10
2009,05,18,15,23,192.90
2009,05,18,15,24,193.10
2009,05,18,15,25,195.20
2009,05,18,15,26,197.40
2009,05,18,15,27,200.00
2009,05,18,15,28,198.50
2009,05,18,15,29,191.90
2009,05,18,15,30,181.50
2009,05,18,15,31,171.50
2009,05,18,15,32,164.20
2009,05,18,15,33,159.60
2009,05,18,15,34,158.00
2009,05,18,15,35,158.00
2009,05,18,15,36,158.00
2009,05,18,15,37,153.80
2009,05,18,15,38,146.70
2009,05,18,15,39,137.20
2009,05,18,15,40,131.60
2009,05,18,15,41,127.80
2009,05,18,15,42,127.00
2009,05,18,15,43,125.80
2009,05,18,15,44,121.20
2009,05,18,15,45,116.40
2009,05,18,15,46,112.50
2009,05,18,15,47,109.90
2009,05,18,15,48,107.80
2009,05,18,15,49,105.60
2009,05,18,15,50,104.30
2009,05,18,15,51,104.80
2009,05,18,15,52,105.00
2009,05,18,15,53,106.80
2009,05,18,15,54,105.10
2009,05,18,15,55,107.40
2009,05,18,15,56,111.40
2009,05,18,15,57,114.80
2009,05,18,15,58,118.60
2009,05,18,15,59,120.00
2009,05,18,16,00,120.40
2009,05,18,16,01,122.00
2009,05,18,16,02,121.90
2009,05,18,16,03,120.40
2009,05,18,16,04,120.70
2009,05,18,16,05,122.40
2009,05,18,16,06,124.50
2009,05,18,16,07,127.60
2009,05,18,16,08,133.70
2009,05,18,16,09,131.80
2009,05,18,16,10,124.30
2009,05,18,16,11,117.70
2009,05,18,16,12,116.00
2009,05,18,16,13,116.60
2009,05,18,16,14,117.30
2009,05,18,16,15,114.80
2009,05,18,16,16,110.30
2009,05,18,16,17,105.90
2009,05,18,16,18,106.30
2009,05,18,16,19,109.70
2009,05,18,16,20,114.50
2009,05,18,16,21,119.20
2009,05,18,16,22,120.80
2009,05,18,16,23,124.80
2009,05,18,16,24,130.00
2009,05,18,16,25,134.00
2009,05,18,16,26,133.40
2009,05,18,16,27,129.40
2009,05,18,16,28,127.30
2009,05,18,16,29,130.10
2009,05,18,16,30,137.10
2009,05,18,16,31,143.40
2009,05,18,16,32,146.00
2009,05,18,16,33,148.90
2009,05,18,16,34,149.70
2009,05,18,16,35,148.30
2009,05,18,16,36,150.20
2009,05,18,16,37,154.40
2009,05,18,16,38,155.00
2009,05,18,16,39,145.40
2009,05,18,16,40,122.90
2009,05,18,16,41,103.20
2009,05,18,16,42,94.00
2009,05,18,16,43,97.30
2009,05,18,16,44,93.80
2009,05,18,16,45,82.40
2009,05,18,16,46,77.00
2009,05,18,16,47,78.10
2009,05,18,16,48,82.20
2009,05,18,16,49,88.80
2009,05,18,16,50,95.50
2009,05,18,16,51,104.90
2009,05,18,16,52,114.70
2009,05,18,16,53,119.60
2009,05,18,16,54,125.30
2009,05,18,16,55,130.40
2009,05,18,16,56,134.40
2009,05,18,16,57,137.00
2009,05,18,16,58,136.40
2009,05,18,16,59,134.60
2009,05,18,17,00,133.10
2009,05,18,17,01,130.10
2009,05,18,17,02,127.40
2009,05,18,17,03,127.00
2009,05,18,17,04,125.70
2009,05,18,17,05,121.30
2009,05,18,17,06,115.20
2009,05,18,17,07,109.80
2009,05,18,17,08,109.00
2009,05,18,17,09,108.90
2009,05,18,17,10,106.50
2009,05,18,17,11,101.20